Location: *
(55.6049°S, 142.1985°W)
Time: 03:20:52
(UTC+00:00)

ARGOS - Pass Details

Date: 12 May 2021
Orbit: 821 x 834 km, 98.4° (Epoch: 23 June)

Event Time Altitude Azimuth Distance (km) Brightness Sun altitude
Rises 15:18:31 0° 36° (NE) 3,390 7.1 -15.9°
Reaches altitude 10° 15:20:55 10° 41° (NE) 2,463 6.4 -15.6°
Maximum altitude 15:26:12 52° 115° (ESE) 1,055 4.0 -14.9°
Drops below altitude 10° 15:31:32 10° 189° (S) 2,486 5.4 -14.1°
Sets 15:33:57 0° 194° (SSW) 3,425 6.1 -13.8°
